CW0791 Weather Reports


time (UTC)temp
F
wind
direction
speed
knots
gust
knots
rain 1hr
in
rain 24hr
in
rain mn
in
humidity
%
barometer
mb
20260506042529 54 246 1.7 5.2 0.00 0.03 0.03 87 1016.7
20260506042028 54 239 2.6 5.2 0.00 0.03 0.03 87 1016.6
20260506041557 54 231 1.7 5.2 0.00 0.03 0.03 87 1016.5
20260506041030 54 225 2.6 6.1 0.00 0.03 0.03 87 1016.5
20260506040529 54 259 2.6 7.0 0.00 0.03 0.03 87 1016.4
20260506040042 54 220 1.7 7.0 0.00 0.03 0.03 86 1016.3
20260506035530 54 251 1.7 7.0 0.00 0.03 0.03 86 1016.2
20260506035029 54 209 2.6 7.0 0.00 0.03 0.03 86 1016.2
20260506034621 54 234 1.7 5.2 0.00 0.03 0.03 86 1016.2
20260506034029 54 228 1.7 6.1 0.00 0.03 0.03 86 1016.1
20260506033529 54 227 1.7 7.0 0.00 0.03 0.03 86 1016.1
20260506033039 54 219 2.6 7.0 0.00 0.03 0.03 86 1016.0
20260506032529 54 223 1.7 7.8 0.00 0.03 0.03 86 1015.9
20260506032029 54 240 2.6 7.8 0.00 0.03 0.03 86 1015.9
20260506031541 54 236 1.7 7.8 0.00 0.03 0.03 85 1015.9
20260506031032 54 217 2.6 5.2 0.00 0.03 0.03 85 1015.8
20260506030528 54 271 1.7 4.3 0.00 0.03 0.03 85 1015.7
20260506030043 55 218 1.7 5.2 0.00 0.03 0.03 85 1015.7
20260506025531 54 236 1.7 5.2 0.00 0.03 0.03 85 1015.7
20260506025028 55 259 1.7 6.1 0.00 0.03 0.03 84 1015.5
20260506024543 55 238 1.7 6.1 0.00 0.03 0.03 84 1015.5
20260506024028 55 233 1.7 6.1 0.00 0.03 0.03 84 1015.5
20260506023529 55 283 2.6 7.8 0.00 0.03 0.03 83 1015.4
20260506023101 56 246 1.7 7.8 0.00 0.03 0.03 83 1015.2
20260506022529 56 271 2.6 7.8 0.00 0.03 0.03 82 1015.2
20260506022029 56 255 2.6 7.0 0.00 0.03 0.03 82 1015.2
20260506021538 56 262 1.7 7.8 0.00 0.03 0.03 81 1015.2
20260506021029 57 276 2.6 7.8 0.00 0.03 0.03 82 1015.2
20260506020528 57 242 2.6 9.6 0.00 0.03 0.03 81 1015.3
20260506020039 57 281 3.5 10.4 0.00 0.03 0.03 80 1015.3
20260506015529 57 231 2.6 10.4 0.00 0.03 0.03 79 1015.3
20260506015031 58 255 1.7 7.8 0.00 0.03 0.03 80 1015.3
20260506014545 58 226 2.6 7.8 0.00 0.03 0.03 78 1015.3
20260506014028 58 217 2.6 9.6 0.00 0.03 0.03 78 1015.3
20260506013528 58 211 4.3 9.6 0.00 0.03 0.03 78 1015.3
20260506013044 58 268 2.6 9.6 0.00 0.03 0.03 78 1015.2
20260506012529 58 243 3.5 9.6 0.00 0.03 0.03 77 1015.3
20260506012029 58 311 2.6 9.6 0.00 0.03 0.03 76 1015.1
20260506011549 58 271 1.7 9.6 0.00 0.03 0.03 78 1015.2
20260506011029 58 198 2.6 9.6 0.00 0.03 0.03 77 1015.2
20260506010529 58 189 2.6 8.7 0.00 0.03 0.03 78 1015.1
20260506010051 58 296 5.2 9.6 0.00 0.03 0.03 77 1015.1
20260506005529 58 277 3.5 9.6 0.00 0.03 0.03 77 1015.1
20260506005029 59 303 4.3 9.6 0.00 0.03 0.03 76 1015.2
20260506004559 59 292 5.2 9.6 0.00 0.03 0.03 75 1015.0
20260506004029 60 285 2.6 7.8 0.00 0.03 0.03 76 1015.0
20260506003529 59 291 3.5 7.8 0.00 0.03 0.03 77 1015.0
20260506003102 59 223 3.5 9.6 0.00 0.03 0.03 77 1015.0
20260506002529 59 225 3.5 10.4 0.00 0.03 0.03 76 1015.0
20260506002029 59 210 4.3 10.4 0.00 0.03 0.03 75 1014.9
20260506001547 60 290 4.3 10.4 0.00 0.03 0.03 75 1014.9
20260506001029 59 231 4.3 10.4 0.00 0.03 0.03 77 1014.9
20260506000529 59 292 3.5 8.7 0.00 0.03 0.03 77 1014.7
20260506000046 59 284 4.3 8.7 0.00 0.03 0.03 76 1014.9
20260505235529 59 212 2.6 9.6 0.00 0.03 0.03 78 1014.7
20260505235029 58 289 4.3 9.6 0.00 0.03 0.03 80 1014.9
20260505234601 58 222 4.3 9.6 0.00 0.03 0.03 79 1014.9
20260505234031 58 294 3.5 12.2 0.00 0.03 0.03 79 1015.0
20260505233532 57 284 5.2 12.2 0.00 0.03 0.03 79 1015.0
20260505233042 57 284 4.3 12.2 0.00 0.03 0.03 79 1015.0
20260505232528 58 277 3.5 8.7 0.00 0.03 0.03 79 1015.0
20260505232030 57 250 4.3 9.6 0.00 0.03 0.03 79 1015.1
20260505231540 57 274 4.3 9.6 0.00 0.03 0.03 80 1015.0
20260505231029 57 248 3.5 9.6 0.00 0.03 0.03 80 1015.1
20260505230528 57 277 3.5 8.7 0.00 0.03 0.03 80 1015.1
20260505230045 57 272 3.5 8.7 0.00 0.03 0.03 80 1015.0
20260505225529 57 290 3.5 10.4 0.00 0.03 0.03 80 1015.0
20260505225033 57 249 3.5 10.4 0.00 0.03 0.03 80 1015.1
20260505224546 58 282 2.6 7.8 0.00 0.03 0.03 80 1015.1
20260505224028 58 284 2.6 8.7 0.00 0.03 0.03 80 1015.1
20260505223528 58 229 3.5 8.7 0.00 0.03 0.03 79 1015.1
20260505223044 58 275 3.5 8.7 0.00 0.03 0.03 79 1015.1
20260505222528 58 190 3.5 8.7 0.00 0.03 0.03 79 1015.1
20260505222030 58 263 3.5 8.7 0.00 0.03 0.03 79 1015.2
20260505221543 58 229 3.5 9.6 0.00 0.03 0.03 79 1015.2
20260505221029 59 274 3.5 9.6 0.00 0.03 0.03 78 1015.1
20260505220528 59 203 3.5 8.7 0.00 0.03 0.03 78 1015.2
20260505220057 59 281 2.6 9.6 0.00 0.03 0.03 78 1015.1
20260505215528 59 267 3.5 9.6 0.00 0.03 0.03 77 1015.1
20260505215028 59 271 3.5 10.4 0.00 0.03 0.03 77 1015.2
20260505214540 60 260 3.5 10.4 0.00 0.03 0.03 74 1015.3
20260505214028 60 263 3.5 7.8 0.00 0.03 0.03 76 1015.2
20260505213528 59 284 2.6 7.8 0.00 0.03 0.03 74 1015.2
20260505213046 59 251 2.6 6.1 0.00 0.03 0.03 76 1015.3
20260505212528 58 196 2.6 7.8 0.00 0.03 0.03 77 1015.3
20260505212029 58 300 2.6 7.8 0.00 0.03 0.03 77 1015.4
20260505211549 58 219 2.6 7.8 0.00 0.03 0.03 77 1015.4
20260505211032 58 279 2.6 7.8 0.00 0.03 0.03 77 1015.4
20260505210529 58 224 1.7 7.8 0.00 0.03 0.03 77 1015.5
20260505210044 58 273 3.5 7.8 0.00 0.03 0.03 77 1015.3
20260505205529 59 232 1.7 7.8 0.00 0.03 0.03 76 1015.4
20260505205032 58 217 1.7 7.8 0.00 0.03 0.03 78 1015.3
20260505204546 58 286 2.6 7.8 0.00 0.03 0.03 77 1015.2
20260505204029 58 235 3.5 8.7 0.00 0.03 0.03 77 1015.3
20260505203529 58 278 2.6 8.7 0.00 0.03 0.03 77 1015.3
20260505203040 58 210 2.6 8.7 0.00 0.03 0.03 77 1015.3
20260505202529 58 236 1.7 9.6 0.00 0.03 0.03 78 1015.3
20260505202028 58 207 2.6 10.4 0.00 0.03 0.03 78 1015.3
20260505201547 58 213 4.3 10.4 0.00 0.03 0.03 77 1015.4
20260505201030 58 194 3.5 8.7 0.00 0.03 0.03 77 1015.4
20260505200532 58 281 3.5 8.7 0.00 0.03 0.03 78 1015.4
20260505200045 58 292 3.5 10.4 0.00 0.03 0.03 78 1015.4
20260505195528 58 271 3.5 10.4 0.00 0.03 0.03 76 1015.4
20260505195028 58 223 3.5 9.6 0.00 0.03 0.03 77 1015.4
20260505194547 59 281 3.5 9.6 0.00 0.03 0.03 76 1015.3
20260505194029 60 290 2.6 7.8 0.00 0.03 0.03 77 1015.4
20260505193528 59 281 3.5 10.4 0.00 0.03 0.03 79 1015.3
20260505193048 57 278 3.5 10.4 0.00 0.03 0.03 80 1015.4
20260505192530 57 269 3.5 9.6 0.00 0.03 0.03 80 1015.5
20260505192028 57 285 3.5 9.6 0.00 0.03 0.03 81 1015.5
20260505191554 57 291 3.5 7.8 0.00 0.03 0.03 80 1015.5
20260505191032 57 276 2.6 8.7 0.00 0.03 0.03 80 1015.4
20260505190529 57 296 3.5 8.7 0.00 0.03 0.03 79 1015.4
20260505190040 58 254 3.5 8.7 0.00 0.03 0.03 80 1015.3
20260505185529 58 293 1.7 7.0 0.00 0.03 0.03 81 1015.3
20260505185029 57 279 2.6 7.0 0.00 0.03 0.03 81 1015.3
20260505184538 57 262 2.6 7.0 0.00 0.03 0.03 82 1015.3
20260505184028 57 254 1.7 7.0 0.00 0.03 0.03 84 1015.3
20260505183529 56 218 2.6 7.0 0.00 0.03 0.03 85 1015.4
20260505183044 56 259 1.7 6.1 0.00 0.03 0.03 86 1015.4
20260505182528 56 233 1.7 8.7 0.00 0.03 0.03 86 1015.4
20260505182028 56 251 2.6 8.7 0.00 0.03 0.03 86 1015.3
20260505181542 55 278 0.9 6.1 0.00 0.03 0.03 88 1015.3
20260505181028 54 289 2.6 8.7 0.00 0.03 0.03 89 1015.3
20260505180528 54 277 3.5 8.7 0.00 0.03 0.03 89 1015.2
20260505180052 54 281 1.7 7.0 0.00 0.03 0.03 89 1015.1
20260505175528 53 277 2.6 6.1 0.00 0.03 0.03 89 1015.1
20260505175033 53 279 1.7 6.1 0.00 0.03 0.03 90 1015.1
20260505174555 53 276 2.6 6.1 0.00 0.03 0.03 90 1015.0
20260505174028 53 281 1.7 7.0 0.00 0.03 0.03 90 1015.0
20260505173529 53 281 1.7 7.0 0.00 0.03 0.03 90 1014.9
20260505173046 53 276 2.6 5.2 0.00 0.03 0.03 90 1015.0
20260505172531 53 254 1.7 5.2 0.00 0.03 0.03 90 1015.0
20260505172028 53 223 1.7 6.1 0.00 0.03 0.03 91 1015.0
20260505171545 53 241 1.7 6.1 0.00 0.03 0.03 90 1014.8
20260505171029 53 220 2.6 6.1 0.00 0.03 0.03 91 1014.9
20260505170528 53 226 2.6 7.0 0.00 0.03 0.03 91 1014.9
20260505170107 53 220 1.7 7.0 0.00 0.03 0.03 91 1014.8
20260505165531 52 269 1.7 9.6 0.00 0.03 0.03 91 1014.9
20260505165029 52 231 2.6 9.6 0.00 0.03 0.03 91 1014.9
20260505164545 52 287 0.9 6.1 0.00 0.03 0.03 90 1014.8
20260505164028 52 291 2.6 6.1 0.00 0.03 0.03 90 1014.9
20260505163528 52 284 2.6 6.1 0.00 0.03 0.03 90 1014.8
20260505163043 52 270 1.7 6.1 0.00 0.03 0.03 90 1014.7
20260505162528 52 286 0.9 6.1 0.00 0.03 0.03 90 1014.7
20260505162028 52 298 1.7 7.0 0.00 0.03 0.03 90 1014.6
20260505161554 52 192 2.6 7.0 0.00 0.03 0.03 90 1014.7
20260505161028 52 281 1.7 7.8 0.00 0.03 0.03 90 1014.5
20260505160529 52 278 1.7 8.7 0.00 0.03 0.03 90 1014.5
20260505153054 51 279 1.7 6.1 0.00 0.03 0.03 90 1014.3
20260505152529 51 261 1.7 7.0 0.00 0.03 0.03 90 1014.2
20260505152028 51 263 2.6 7.0 0.00 0.03 0.03 90 1014.2
20260505151548 51 284 1.7 7.0 0.00 0.03 0.03 90 1014.2
20260505151029 52 254 0.9 6.1 0.00 0.03 0.03 90 1014.2
20260505150529 51 0 1.7 6.1 0.00 0.03 0.03 90 1014.2
20260505140528 50 205 2.6 4.3 0.00 0.03 0.03 90 1013.8
20260505125029 50 257 0.9 3.5 0.01 0.03 0.03 91 1013.7
20260505124544 50 254 0.9 5.2 0.01 0.03 0.03 91 1013.7
20260505124028 50 302 0.9 6.1 0.01 0.03 0.03 91 1013.7
20260505123528 50 267 1.7 6.1 0.01 0.03 0.03 91 1013.6
20260505123102 50 209 0.9 6.1 0.01 0.03 0.03 91 1013.5
20260505122528 49 271 1.7 6.1 0.01 0.03 0.03 91 1013.5
20260505122028 50 248 1.7 4.3 0.01 0.03 0.03 91 1013.5
20260505121541 49 248 0.9 7.0 0.01 0.03 0.03 91 1013.4
20260505121028 50 196 2.6 7.0 0.01 0.03 0.03 91 1013.2
20260505120532 50 219 2.6 5.2 0.01 0.03 0.03 91 1013.3
20260505120040 50 252 0.9 4.3 0.01 0.03 0.03 91 1013.5
20260505115529 50 240 1.7 4.3 0.00 0.02 0.02 91 1013.5
20260505115029 50 223 1.7 4.3 0.00 0.02 0.02 91 1013.6
20260505114609 50 262 1.7 3.5 0.00 0.02 0.02 91 1013.5
20260505114029 50 275 0.9 4.3 0.00 0.02 0.02 91 1013.6
20260505113529 50 284 0.9 5.2 0.00 0.02 0.02 91 1013.7
20260505113044 50 276 1.7 5.2 0.00 0.02 0.02 91 1013.8
20260505112531 50 288 0.9 3.5 0.00 0.02 0.02 91 1013.8
20260505112028 50 0 0.9 3.5 0.00 0.02 0.02 91 1013.8
20260505111558 50 0 0.9 5.2 0.00 0.02 0.02 91 1013.7
20260505111029 50 0 0.9 5.2 0.00 0.02 0.02 91 1013.7
20260505110529 50 0 1.7 5.2 0.00 0.02 0.02 91 1013.6
20260505102028 50 213 1.7 5.2 0.01 0.03 0.02 90 1013.5
20260505101546 49 214 1.7 6.1 0.01 0.03 0.02 89 1013.7
20260505101029 50 242 2.6 6.1 0.01 0.03 0.02 89 1013.6
20260505100529 50 215 2.6 5.2 0.01 0.03 0.02 89 1013.7
20260505100037 50 223 1.7 4.3 0.00 0.02 0.01 89 1013.7
20260505095532 50 219 2.6 4.3 0.00 0.02 0.01 89 1013.8
20260505095028 50 219 1.7 4.3 0.00 0.02 0.01 89 1013.7
20260505094548 50 281 0.9 3.5 0.01 0.02 0.01 89 1013.9
20260505094030 50 248 0.9 5.2 0.01 0.02 0.01 88 1013.9
20260505093528 49 270 1.7 5.2 0.01 0.02 0.01 88 1014.1
20260505093043 49 288 1.7 3.5 0.01 0.02 0.01 88 1014.0
20260505092529 49 276 0.9 3.5 0.01 0.02 0.01 88 1014.1
20260505092029 50 286 0.9 6.1 0.01 0.02 0.01 88 1014.1
20260505091539 50 273 1.7 6.1 0.01 0.02 0.01 88 1014.1
20260505091029 50 276 0.9 4.3 0.01 0.02 0.01 88 1014.2
20260505090529 49 269 1.7 4.3 0.01 0.02 0.01 87 1014.3
20260505090048 49 270 0.9 3.5 0.01 0.02 0.01 87 1014.4
20260505085529 50 271 0.9 6.1 0.01 0.02 0.01 87 1014.3
20260505085029 50 292 1.7 6.1 0.01 0.02 0.01 86 1014.4
20260505084545 50 276 0.9 5.2 0.00 0.01 0.00 87 1014.4
20260505084028 50 265 0.9 2.6 0.00 0.01 0.00 87 1014.4
20260505083528 50 278 1.7 5.2 0.00 0.01 0.00 87 1014.4
20260505083059 50 281 1.7 5.2 0.00 0.01 0.00 87 1014.3
20260505082528 49 269 1.7 5.2 0.00 0.01 0.00 88 1014.3
20260505082028 49 279 1.7 5.2 0.00 0.01 0.00 88 1014.4
20260505081548 49 281 1.7 5.2 0.00 0.01 0.00 88 1014.5
20260505081030 49 259 1.7 5.2 0.00 0.01 0.00 88 1014.6
20260505080528 49 266 1.7 5.2 0.00 0.01 0.00 88 1014.5
20260505080043 49 222 1.7 5.2 0.00 0.01 0.00 88 1014.7
20260505075528 49 276 1.7 5.2 0.00 0.01 0.00 87 1014.7
20260505075028 49 241 1.7 5.2 0.00 0.01 0.00 87 1014.6
20260505074543 50 264 1.7 6.1 0.00 0.01 0.00 86 1014.7
20260505074028 50 276 1.7 8.7 0.00 0.01 0.00 86 1014.7
20260505073529 50 286 1.7 8.7 0.00 0.01 0.00 85 1014.9
20260505073037 50 295 1.7 7.8 0.00 0.01 0.00 84 1014.8
20260505072527 50 262 2.6 7.8 0.00 0.01 0.00 83 1014.8
20260505072028 50 283 3.5 7.8 0.00 0.01 0.00 82 1014.8
20260505071544 50 277 2.6 8.7 0.00 0.01 0.00 82 1014.7
20260505071029 50 287 3.5 8.7 0.00 0.01 0.00 82 1014.6
20260505070530 50 271 3.5 8.7 0.00 0.01 0.00 82 1014.6
20260505070049 50 284 2.6 7.0 0.00 0.01 0.00 83 1014.6
20260505065529 50 302 2.6 8.7 0.00 0.01 0.01 83 1014.6
20260505065029 50 288 3.5 8.7 0.00 0.01 0.01 83 1014.6
20260505064556 51 274 3.5 8.7 0.00 0.01 0.01 83 1014.5
20260505064028 51 289 3.5 7.8 0.00 0.01 0.01 82 1014.6
20260505063528 51 286 4.3 7.8 0.00 0.01 0.01 81 1014.5
20260505063049 51 296 3.5 7.8 0.00 0.01 0.01 81 1014.5
20260505062528 51 294 4.3 8.7 0.00 0.01 0.01 81 1014.4
20260505062029 51 287 4.3 8.7 0.00 0.01 0.01 80 1014.3
20260505061542 51 279 3.5 8.7 0.00 0.01 0.01 81 1014.2
20260505061031 51 282 3.5 8.7 0.00 0.01 0.01 81 1014.3
20260505060529 51 267 3.5 8.7 0.00 0.01 0.01 82 1014.3
20260505060040 51 278 3.5 7.8 0.00 0.01 0.01 82 1014.2
20260505055528 51 277 1.7 6.1 0.00 0.01 0.01 83 1014.3
20260505055029 51 282 0.9 6.1 0.00 0.01 0.01 83 1014.2
20260505054539 51 309 1.7 7.0 0.00 0.01 0.01 83 1014.2
20260505054029 51 252 1.7 7.0 0.00 0.01 0.01 83 1014.2
20260505053528 51 276 2.6 7.0 0.00 0.01 0.01 83 1014.4
20260505053038 51 279 2.6 7.0 0.00 0.01 0.01 83 1014.6
20260505052529 51 275 2.6 7.0 0.00 0.01 0.01 83 1014.5
20260505052028 51 277 2.6 7.8 0.00 0.01 0.01 84 1014.6
20260505051544 51 294 2.6 7.8 0.00 0.01 0.01 84 1014.6
20260505051029 51 308 3.5 7.0 0.00 0.01 0.01 85 1014.7
20260505050531 51 304 2.6 7.0 0.00 0.01 0.01 85 1015.0